Regional Weather Roundup
Issued by NWS

Home | Current Version | Previous Version | Text Only | Print | Product List | Glossary On
Versions: 1 2 3 4 5 6 7 8 9 10 11 12 13 14 15 16 17 18 19 20 21 22 23 24 25 26 27 28 29 30 31 32 33 34 35 36 37 38 39 40 41 42 43 44 45 46 47 48 49 50
000
ASUS44 KBMX 242310
RWRAL

ALABAMA REGIONAL WEATHER ROUNDUP
NATIONAL WEATHER SERVICE BIRMINGHAM AL
600 PM CDT THU JUL 24 2014

NOTE: "FAIR" INDICATES FEW OR NO CLOUDS BELOW 12,000 FEET
WITH NO SIGNIFICANT WEATHER AND/OR OBSTRUCTIONS TO VISIBILITY.

THE REMARK "TC" DENOTES TEMPERATURE IN DEGREES CELSIUS.

ALZ001>011-014-016>018-020-250000-
NORTH ALABAMA

CITY           SKY/WX    TMP DP  RH WIND       PRES   REMARKS
MUSCLE SHOALS  PTSUNNY   85  65  51 NW10      29.97F
HUNTSVILLE     MOSUNNY   85  67  54 NW6       29.95F
DECATUR        SUNNY     84  68  58 NW9       29.96S
HALEYVILLE     FAIR      80  69  69 NW7       30.00F
GADSDEN        SUNNY     84  66  54 NW8       29.94S
$$

ALZ012-013-022-023-030>036-040>044-250000-
WEST CENTRAL ALABAMA

CITY           SKY/WX    TMP DP  RH WIND       PRES   REMARKS
TUSCALOOSA     MOSUNNY   89  70  53 N8        29.93R HX  94
$$

ALZ015-024>027-033>036-040>044-250000-
CENTRAL ALABAMA

CITY           SKY/WX    TMP DP  RH WIND       PRES   REMARKS
BIRMINGHAM     MOSUNNY   87  67  51 NW12      29.96S HX  90
MONTGOMERY     PTSUNNY   87  73  62 NW6       29.92S HX  94
SHELBY CO ARPT CLOUDY    83  75  77 CALM      29.94S HX  90
MAXWELL AFB    PTSUNNY   84  74  71 NW2       29.92F HX  92
GREENVILLE     NOT AVBL
$$

ALZ019-021-028-029-037-038-045>048-250000-
EAST CENTRAL ALABAMA

CITY           SKY/WX    TMP DP  RH WIND       PRES   REMARKS
ANNISTON       PTSUNNY   88  67  49 NW8       29.94  HX  91
ALEXANDER CITY CLOUDY    83  73  71 W5        29.97S
AUBURN         MOSUNNY   84  66  54 SW9       29.99R
$$

ALZ051>064-250000-
SOUTHWEST ALABAMA

CITY           SKY/WX    TMP DP  RH WIND       PRES   REMARKS
MOBILE         MOSUNNY   84  74  71 SW8       29.94F HX  91
BROOKLEY FIELD MOSUNNY   86  72  62 SW5       29.95F HX  92
EVERGREEN      MOSUNNY   88  72  58 SW7       29.94S HX  94
$$

ALZ049-050-065>069-250000-
SOUTHEAST ALABAMA

CITY           SKY/WX    TMP DP  RH WIND       PRES   REMARKS
DOTHAN         PTSUNNY   81  73  76 S7        29.99S
OZARK          DRIZZLE   81  75  83 SW8       29.96S
TROY           SUNNY     89  69  51 W7        29.94S HX  93
EUFAULA        FAIR      91  71  51 W6        29.92S HX  97
$$


USA.gov is the U.S. government's official web portal to all federal, state and local government web resources and services.